Regional Weather Roundup
Issued by NWS

Home | Current Version | Previous Version | Graphics & Text | Print | Product List | Glossary On
Versions: 1 2 3 4 5 6 7 8 9 10 11 12 13 14 15 16 17 18 19 20 21 22 23 24 25 26 27 28 29 30 31 32 33 34 35 36 37 38 39 40 41 42 43 44 45 46 47 48 49 50
000
ASUS43 KLOT 031608
RWRIL

ILLINOIS REGIONAL WEATHER ROUNDUP
NATIONAL WEATHER SERVICE CHICAGO/ROMEOVILLE IL
1100 AM CDT MON AUG 03 2015

NOTE: "FAIR" INDICATES FEW OR NO CLOUDS BELOW 12,000 FEET WITH NO
SIGNIFICANT WEATHER AND/OR OBSTRUCTIONS TO VISIBILITY.

* THESE STATIONS ARE NOT UNDER NWS QUALITY CONTROL. THEY ALSO MAY NOT
  REPORT WEATHER SUCH AS PRECIPITATION OR FOG.

ILZ001-002-007-009-015-016-024-031700-
NORTHWEST ILLINOIS

CITY           SKY/WX    TMP DP  RH WIND       PRES   REMARKS
MOLINE         SUNNY     78  53  41 N8G17     29.92R
STERLING*      SUNNY     79  52  38 N9        29.88R
SAVANNA*       SUNNY     78  48  34 N6        29.91R
$$

ILZ003-004-008-010-011-017-018-031700-
NORTH CENTRAL ILLINOIS

CITY           SKY/WX    TMP DP  RH WIND       PRES   REMARKS
ROCKFORD       MOSUNNY   78  46  32 NW14      29.91R
FREEPORT*      SUNNY     75  50  41 NW9G17    29.93R
ROCHELLE*      SUNNY     75  55  50 N10G16    29.90S
DE KALB*       SUNNY     75  59  57 NW7       29.90R
PERU*          SUNNY     77  54  44 N13       29.90R
$$

ILZ005-006-012>014-019>023-031700-
NORTHEAST ILLINOIS

CITY           SKY/WX    TMP DP  RH WIND       PRES   REMARKS
CHICAGO-OHARE  MOSUNNY   77  56  48 W10       29.86R
CHICAGO-MIDWAY MOSUNNY   79  55  43 NW12      29.85S
AURORA         SUNNY     77  61  57 NW10      29.88R
LANSING*       MOSUNNY   79  58  48 N5        29.86R HX  80
JOLIET*        SUNNY     80  60  50 N8        29.87R HX  81
WAUKEGAN       SUNNY     75  54  47 W8        29.86R
DUPAGE AIRPORT SUNNY     76  56  49 NW8       29.87R
KANKAKEE*      SUNNY     81  64  55 NW7       29.87R HX  82
WHEELING       NOT AVBL
MORRIS*        SUNNY     78  62  56 N3        29.87R HX  80
ROMEOVILLE*    SUNNY     77  58  52 N6        29.87R
NORTHERLY ISL    N/A     75  62  64 N7          N/A
$$

LMZ740>746-031700-
SOUTHERN LAKE MICHIGAN

STATION/POSITION SKY/WX   TEMP    WIND        PRES    VSBY  WAVE
                          AIR SEA DIR/SP/G                  HT/PER
                          (F)     (DEG/KT/KT) (MB)    (MI)  (FT/S)
HARRISON CRIB              70     340/ 11/ 12   N/A
BURNHAM HARBOR             76     340/  6/  9   N/A
CALUMET HARBOR             74     340/ 11/ 12   N/A
BURNS HARBOR               71     330/  9/ 11 1011.2R
MICHIGAN CITY              72     290/ 11/ 13   N/A
MICHIGAN CITY 6N           71 74  330/  8/ 12   N/A           2/ 4
ST. JOSEPH                 70 73  350/ 12/ 14   N/A           2/ 4
$$

ILZ025>027-034>036-040-047-049-050-058-095>099-031700-
WEST-CENTRAL ILLINOIS

CITY           SKY/WX    TMP DP  RH WIND       PRES   REMARKS
QUINCY         SUNNY     78  65  63 NW7       29.93S HX  80
GALESBURG*     SUNNY     76  58  53 N6        29.93R
MACOMB*        SUNNY     76  62  60 N6        29.95R
JACKSONVILLE*  PTSUNNY   81  69  66 W5        29.91S HX  84
PITTSFIELD*    PTSUNNY   80  66  61 SW3       29.93S HX  82
$$

ILZ028>032-037-038-041>044-048-051>054-059>061-031700-
CENTRAL ILLINOIS

CITY           SKY/WX    TMP DP  RH WIND       PRES   REMARKS
PONTIAC        SUNNY     80  67  64 NW6       29.88R HX  82
BLOOMINGTON    PTSUNNY   81  70  69 NW10      29.90R HX  84
DECATUR        SUNNY     82  69  64 W10       29.89R HX  85
PEORIA         SUNNY     81  64  56 VRB6      29.90R HX  82
LACON*         SUNNY     77  62  59 NW8       29.89R
LINCOLN*       SUNNY     82  67  60 W8        29.88S HX  85
SPRINGFIELD    MOSUNNY   80  69  69 W9        29.90R HX  83
TAYLORVILLE    PTSUNNY   79  68  69 W9        29.91R HX  81
$$

ILZ033-039-045-046-055>057-062-063-031700-
EAST-CENTRAL ILLINOIS

CITY           SKY/WX    TMP DP  RH WIND       PRES   REMARKS
CHAMPAIGN      MOSUNNY   83  72  69 W9        29.87R HX  88
DANVILLE*      SUNNY     82  69  66 W3        29.83S HX  85
RANTOUL*       SUNNY     85  68  56 W5        29.86R HX  88
MATTOON        SUNNY     84  67  56 SW10      29.87R HX  86
PARIS*         MOSUNNY   83  73  71 W8        29.87R HX  89
$$

ILZ079-100>102-031700-
SOUTHWEST ILLINOIS

CITY           SKY/WX    TMP DP  RH WIND       PRES   REMARKS
ALTON          MOSUNNY   82  64  54 NW6       29.91  HX  84
BELLEVILLE     SUNNY     88  66  49 NW5       29.89R HX  90
CAHOKIA*       SUNNY     89  63  41 W8        29.90R HX  90
SPARTA*        SUNNY     85  71  61 W5        29.92S HX  90
$$

ILZ064>066-069>071-074>076-080>082-084>086-088>090-092>094-031700-
SOUTH-CENTRAL ILLINOIS

CITY           SKY/WX    TMP DP  RH WIND       PRES   REMARKS
CARBONDALE     SUNNY     86  70  58 VRB7      29.91S HX  90
CAIRO*         SUNNY     86  73  65 S5        29.92F HX  93
EFFINGHAM*     SUNNY     85  61  45 W7        29.91R HX  85
MARION         MOSUNNY   88  70  55 SW7       29.92S HX  92
MT. VERNON     SUNNY     88  66  48 W8        29.91S HX  90
CENTRALIA*     SUNNY     87  63  44 W5        29.90S HX  87
SALEM*         SUNNY     87  66  49 W9        29.90S HX  90
METROPOLIS*    SUNNY     87  74  64 SW5       29.93S HX  96
$$

ILZ067-068-072-073-078-083-087-091-031700-
SOUTHEAST ILLINOIS

CITY           SKY/WX    TMP DP  RH WIND       PRES   REMARKS
LAWRENCEVILLE  SUNNY     87  67  51 W10       29.87R HX  90
FLORA*         SUNNY     86  66  50 W8        29.89S HX  88
FAIRFIELD*     SUNNY     86  69  55 W6        29.88R HX  90
HARRISBURG*    SUNNY     86  70  58 W5        29.91S HX  91
ROBINSON*      SUNNY     84  69  61 W8        29.88R HX  88
CARMI*         SUNNY     86  67  52 W7        29.89R HX  88
$$

ABBREVIATIONS USED IN REMARKS
   TC - TEMPERATURE IN CELSIUS
  WCI - WIND CHILL INDEX
   HX - HEAT INDEX
  VSB - VISIBILITY
$$



USA.gov is the U.S. government's official web portal to all federal, state and local government web resources and services.